Flag for U.S.A. Weather past 2 weeks in Pasadena, California, U.S.A.

Now
58 °F

Overcast.


Feels Like: 58 °F
Forecast: 58 / 76 °F
Wind: 3 mph from South

Location: Burbank-Glendale-Pasadena Airport

Current Time: May 27, 2015 at 7:54:46 AM

Latest Report: May 27, 2015 at 6:53 AM


Visibility: 9 mi

Pressure: 29.95 "Hg

Humidity: 81%

Dew point: 52 °F

Location of PasadenaLocation

Historic Weather in Pasadena — Graph

°F

Pasadena temperature yesterday

Maximum temperature yesterday: 71 °F (at 2:53 PM)
Minimum temperature yesterday: 57 °F (at 11:53 PM)
Average temperature yesterday: 63 °F

Past Weeks' High & Low Weather Summary

 TemperatureHumidityPressure
High72 °F (May 12, 2:53 PM)89% (May 14, 10:53 PM)30.06 "Hg (May 14, 10:53 PM)
Low52 °F (May 15, 1:53 AM)37% (May 12, 3:53 PM)29.78 "Hg (May 15, 4:53 PM)
Average61 °F65%29.93 "Hg
* Reported May 12 5:55 AM — May 27 5:53 AM, Pasadena, Weather by CustomWeather, © 2015

Note: Actual official high and low records may vary slightly from our data, if they occured in-between our weather recording intervals... More about our weather records

Advertising

Pasadena weather history for previous 24 hours

 ConditionsComfort  
Time TempWeatherWind HumidityBarometerVisibility
5:53 AM
Wed, May 27
58 °FOvercast.5 mph81%29.94 "Hg10 mi
4:53 AM58 °FOvercast.No wind81%29.93 "Hg10 mi
3:53 AM58 °FOvercast.5 mph81%29.95 "Hg10 mi
2:53 AM58 °FOvercast.No wind81%29.96 "Hg10 mi
1:53 AM58 °FOvercast.No wind81%29.96 "Hg10 mi
12:53 AM58 °FOvercast.6 mph81%29.96 "Hg10 mi
11:53 PM
Tue, May 26
57 °FOvercast.5 mph83%29.97 "Hg10 mi
10:53 PM58 °FClear.5 mph81%29.96 "Hg10 mi
9:53 PM60 °FClear.7 mph75%29.95 "Hg10 mi
8:53 PM59 °FSunny.7 mph78%29.94 "Hg10 mi
7:53 PM61 °FSunny.8 mph72%29.93 "Hg10 mi
6:53 PM64 °FSunny.10 mph68%29.92 "Hg10 mi
5:53 PM67 °FSunny.10 mph61%29.91 "Hg10 mi
4:53 PM69 °FSunny.9 mph57%29.90 "Hg10 mi
3:53 PM70 °FSunny.6 mph57%29.91 "Hg10 mi
2:53 PM71 °FSunny.6 mph55%29.93 "Hg10 mi
1:53 PM68 °FPassing clouds.10 mph61%29.94 "Hg10 mi
12:53 PM67 °FScattered clouds.3 mph61%29.95 "Hg10 mi
11:53 AM65 °FOvercast.5 mph66%29.97 "Hg9 mi
10:53 AM62 °FOvercast.3 mph73%29.97 "Hg9 mi
9:53 AM62 °FOvercast.No wind73%29.96 "Hg10 mi
8:53 AM61 °FOvercast.No wind75%29.97 "Hg10 mi
7:53 AM60 °FOvercast.No wind78%29.96 "Hg10 mi
Weather by CustomWeather, © 2015

See weather overviewHow to use our weather pages